星链-34742 (STARLINK-34742)

导读 | 豆包AI

STARLINK-34742是美国SpaceX星链星座的一颗卫星,于2025年7月26日发射升空,隶属太空探索技术公司(SpaceX)主导的星链互联网项目。星链项目旨在构建全球卫星互联网星座,为全球偏远地区等提供高速低延迟宽带网络服务,该卫星将助力拓展星链系统的全球覆盖与服务能力。

Basic Information
目录编号:
64942
目录名称:
STARLINK-34742
国际标识:
2025-158L
轨道中心:
EARTH
卫星名称:
星链-34742
卫星全名:
星链-34742 (STARLINK-34742)
卫星状态:
在轨 (已飞行231 天)
发射日期:
2025-07-26 UTC
国别 :
美国 (US)
星等 :
--
Orbit Information
数据来源 国际轨道数据 AOE轨道数据
星历时间 2026-03-14T07:18:55+0800
16小时前
查看轨道信息
2026-03-08T02:00:00+0800
6天前
查看轨道信息
半长轴 6927.67km 6927.636km
偏心率 0.0001721 0.0001815
轨道倾角 97.603° 97.603°
近地点辐角 70.494° 67.946°
升交点赤经 298.352° 292.222°
平近点角 289.647° 71.072°
近地点 548.34km 548.241km
远地点 550.726km 550.757km
周期 95.640分钟 95.640分钟
每日圈数 15.056429 15.05654
Detailed Information
固有亮度:
5
最大亮度:
2.5
卫星平台:
Starlink V1.0
覆盖范围:
全球
运营商:
太空探索技术公司
运营商所在国:
美国
制造商(研发单位):
太空探索技术公司
制造商所在国:
美国
使用方式:
暂无
Satellite Introduction
Starlink 计划是 SpaceX 推出的全球卫星互联网项目,通过发射低轨道卫星,为全球尤其是偏远地区提供高速、低延迟的互联网服务。自 2019 年起,Starlink 已部署数千颗卫星,旨在缩小全球数字鸿沟,推动互联网普及。该项目还为军事、航空等行业提供通信支持,带来广泛经济效益。
2D Orbit Map
3D Orbit Map
Orbit Altitude Analysis Chart
Orbit Inclination Analysis Chart
Orbit Comprehensive Analysis Chart
View Comprehensive Chart